Location: General Nathan Twining Observatory
(34.5931°N, 106.8201°W)
Time: 14:38:24
(UTC-06:00)

ADEOS II - Visible Passes

Search period start: 06 May 2016 00:00
Search period end: 16 May 2016 00:00
Orbit: 799 x 803 km, 98.3° (Epoch: 05 May)

Date Brightness Start Highest point End Pass type
(mag) Time Alt. Az. Time Alt. Az. Time Alt. Az.
06 May 3.3 05:13:37 10° NNE 05:18:38 44° E 05:23:37 10° S visible
07 May 4.3 04:47:58 10° NE 04:52:11 24° E 04:56:23 10° SSE visible
08 May 4.8 04:23:19 10° ENE 04:25:38 13° E 04:27:57 10° ESE visible
09 May 2.4 05:34:11 10° NNE 05:39:27 73° ESE 05:44:41 10° S visible
10 May 3.5 05:08:10 10° NNE 05:13:05 39° E 05:17:57 10° SSE visible
11 May 4.4 04:42:37 10° NE 04:46:36 22° E 04:50:34 10° SE visible
12 May 4.9 04:18:30 10° ENE 04:20:02 11° E 04:21:34 10° ESE visible
13 May 2.6 05:28:39 10° NNE 05:33:53 65° E 05:39:05 10° S visible
14 May 3.7 05:02:42 10° NNE 05:07:30 35° E 05:12:15 10° SSE visible
15 May 4.6 04:37:19 10° NE 04:41:01 19° E 04:44:41 10° SE visible
